Location: Zihuatanejo
(17.6330°N, 101.5500°W)
Time: 04:46:44
(UTC-05:00)

Daily predictions for brighter satellites

Satellite Brightness Start Highest point End
(mag) Time Altitude Azimuth Time Altitude Azimuth Time Altitude Azimuth
CENTAUR R/B 3.6 04:51:51 37° NNE 04:51:51 37° NNE 04:55:31 10° NNE
Cosmos 2369 Rocket 3.6 04:54:09 10° N 04:59:14 35° ENE 05:04:20 10° SE
Okean O Rocket 4.3 04:57:05 10° NNE 04:57:46 14° NNE 04:57:46 14° NNE
CZ-4B R/B 4.3 04:56:53 10° NNE 05:00:18 38° NE 05:00:18 38° NE
CZ-3 Stage 3 3.4 04:54:54 10° WNW 05:23:22 66° SW 05:28:27 10° SE
Centaur D-1A AC-35 4.4 05:24:26 36° SSW 05:28:10 46° SSE 05:33:11 10° E
Cosmos 1943 Rocket 4.4 05:25:09 10° NNE 05:29:40 24° ENE 05:34:08 10° ESE
Cosmos 1825 4.3 05:38:00 10° NNE 05:41:14 27° E 05:44:29 10° SE
BREEZE-M DEB (TANK) 3.9 05:40:09 32° NW 05:42:41 82° NE 05:58:32 10° SE
Sakura Rocket 3.0 05:45:32 85° ENE 05:45:32 85° ENE 05:49:34 10° ESE
Nadezhda 1 Rocket 3.9 05:42:46 34° S 05:45:41 88° W 05:51:57 10° N
Cosmos 1408 4.4 05:42:47 10° NNE 05:46:08 31° E 05:49:30 10° SSE
SeaSat 1 2.5 05:42:08 10° SSE 05:47:02 79° ENE 05:51:58 10° NNW
UNK 3.3 05:47:54 51° SE 05:47:54 51° SE 05:52:27 10° SE
PSLV R/B 3.5 05:45:52 10° NNE 05:50:15 85° ESE 05:50:48 68° S
Thor Agena Rocket 4.2 05:45:44 10° SSE 05:50:39 54° ENE 05:55:40 10° N
ADEOS II 2.2 05:47:15 10° NNE 05:52:29 72° ESE 05:56:12 20° S
Atlas Centaur 2 2.1 05:55:27 46° NW 05:56:01 48° NNW 06:01:17 10° NE
Cosmos 1190 Rocket 3.8 05:56:15 44° SSW 05:57:56 80° WNW 06:03:08 10° N
Okean 1-7 3.0 05:57:29 32° S 05:59:25 76° E 06:03:42 10° N
ATLAS CENTAUR R/B 1.1 05:56:42 10° NNW 06:00:39 78° ENE 06:04:18 10° SSE
USA 32 3.9 06:00:47 34° SSW 06:02:59 65° W 06:08:09 10° N
COSMOS 2406 4.1 06:11:33 28° WNW 06:11:55 29° WNW 06:16:49 10° N
AVUM R/B 2.8 06:12:42 84° WNW 06:12:42 84° WNW 06:15:49 10° NNE
Cosmos 1954 Rocket 4.3 06:13:24 10° S 06:18:28 64° ESE 06:23:35 10° NNE
Cosmos 2074 Rocket 4.1 06:15:59 10° NNW 06:21:59 53° W 06:28:01 10° SSW
Cosmos 2184 Rocket 4.1 06:17:42 10° NNW 06:23:52 54° W 06:29:59 10° SSW
ARIANE 5 DEB (SYLDA) 4.3 06:23:29 18° SSW 06:24:11 19° SSW 06:26:35 10° SSE
Cosmos 1782 Rocket 3.6 06:20:38 10° N 06:24:57 78° E 06:29:16 10° S
DELTA-4 R/B 4.2 06:24:04 15° SSW 06:25:15 18° S 06:27:32 10° ESE
Cosmos 2221 Rocket 4.5 06:26:59 27° W 06:27:30 27° W 06:31:17 10° NNW
Cosmos 676 Rocket 4.0 06:30:06 10° SSW 06:35:09 57° WNW 06:40:15 10° N
MOS 1 Rocket 3.0 06:31:57 10° N 06:36:13 85° WNW 06:40:34 10° SSW
CZ-4B R/B 4.1 06:32:50 10° N 06:37:15 63° WNW 06:41:33 10° SSW
Okean-O 3.8 06:35:45 10° NNW 06:39:14 23° WNW 06:41:02 18° WSW
Cosmos 2341 Rocket 4.4 06:34:06 10° N 06:40:23 71° E 06:46:42 10° S
GPS 2-14 Rocket1 3.0 06:39:24 21° W 06:41:36 45° SSW 06:45:17 10° ESE
GPS 2-17 Rocket1 3.8 06:39:21 19° WSW 06:42:19 38° SSW 06:46:49 10° SE
Cosmos 2369 Rocket 3.4 06:39:14 10° WNW 06:42:54 18° WSW 06:46:35 10° SW
Centaur D-1AR AC-41 3.8 06:41:35 12° WNW 06:45:11 65° N 06:57:00 10° E
Cosmos 1908 Rocket 4.5 06:42:03 10° NW 06:45:39 26° W 06:49:15 10° SSW
Cosmos 2082 Rocket 3.1 06:45:55 10° S 06:51:27 53° ESE 06:56:59 10° NNE
ADEOS Rocket 4.3 06:44:56 10° NNW 06:51:34 32° WNW 06:58:05 10° SW
Cosmos 2285 Rocket 4.0 06:46:18 10° NNW 06:52:38 68° WSW 06:58:54 10° S
USA 229 DEB 4.5 06:47:17 10° S 06:53:59 56° ESE 07:00:43 10° NE
USA 229 4.5 06:47:23 10° S 06:54:05 55° ESE 07:00:48 10° NE
COBE Rocket 4.0 06:51:15 10° N 06:56:18 60° WNW 07:01:13 10° SSW
Meteor 1-31 Rocket 3.9 06:56:24 10° NNW 06:59:29 24° WNW 07:02:36 10° SW
Meteor 2-6 Rocket 4.5 06:55:56 10° S 07:01:53 85° E 07:07:50 10° N
Meteor 2-10 Rocket 4.2 07:02:50 10° SSW 07:08:14 40° W 07:13:39 10° NNW
Cosmos 2151 Rocket 3.6 07:05:34 10° N 07:09:57 88° E 07:14:21 10° S
ARIANE 5 R/B 4.5 07:05:44 10° WSW 07:10:44 21° SSW 07:13:36 10° SE
Cosmos 1833 Rocket 3.2 07:05:53 10° S 07:11:25 65° ESE 07:16:58 10° NNE
